Location: Wanzleben
(52.0609°N, 11.4408°E)
Time: 02:12:58
(UTC+00:00)

Envisat - Pass Details

Date: 30 November 2020
Orbit: 764 x 766 km, 98.1° (Epoch: 20 January)

Event Time Altitude Azimuth Distance (km) Brightness Sun altitude
Rises 17:13:49 0° 200° (SSW) 3,223 6.7 -18.6°
Reaches altitude 10° 17:16:30 10° 214° (SSW) 2,302 6.1 -19.0°
Maximum altitude 17:20:38 25° 268° (W) 1,516 5.3 -19.7°
Drops below altitude 10° 17:24:50 10° 324° (NW) 2,316 5.8 -20.3°
Sets 17:27:33 0° 337° (NNW) 3,248 6.4 -20.7°
